Regional Weather Roundup
Issued by NWS Sioux Falls, SD

Home | Current Version | Previous Version | Text Only | Print | Product List | Glossary On
Versions: 1 2 3 4 5 6 7 8 9 10 11 12 13 14 15 16 17 18 19 20 21 22 23 24 25 26 27 28 29 30 31 32 33 34 35 36 37 38 39 40 41 42 43 44 45 46 47 48 49 50
000
ASUS43 KFSD 051802
RWRFSD

WEATHER ROUNDUP FOR SE SOUTH DAKOTA/SW MINNESOTA/NW IOWA
NATIONAL WEATHER SERVICE SIOUX FALLS SD
1200 PM CST MON DEC 05 2016

NOTE: "FAIR" INDICATES FEW OR NO CLOUDS BELOW 12,000 FEET WITH NO
SIGNIFICANT WEATHER AND OR OBSTRUCTIONS TO VISIBILITY.


SDZ038>040-050-052>070-051900-
SOUTHEAST SOUTH DAKOTA

CITY           SKY/WX    TMP DP  RH WIND       PRES   REMARKS
CHAMBERLAIN    SUNNY     40  31  70 W20G25    29.50R
6HR MIN TEMP:  30; 6HR MAX TEMP:  44;

HURON          PTSUNNY   39  30  70 MISG      29.47R
6HR MIN TEMP:  29; 6HR MAX TEMP:  39;

MADISON        FAIR      39  37  93 S14G22    29.48F
MITCHELL       PTSUNNY   42  30  62 S10       29.47F
6HR MIN TEMP:  32; 6HR MAX TEMP:  42;

SIOUX FALLS    CLOUDY    41  32  70 S16G22    29.51F
6HR MIN TEMP:  35; 6HR MAX TEMP:  41;

WINNER         FAIR      40  26  57 NW24G31   29.53R
YANKTON        PTSUNNY   45  28  53 S15G21    29.50F
$$

MNZ071-072-080-081-089-090-097-098-051900-
SOUTHWEST MINNESOTA

CITY           SKY/WX    TMP DP  RH WIND       PRES   REMARKS
FAIRMONT       CLOUDY    40  34  79 S22       29.64F
JACKSON        CLOUDY    39  32  75 S18         N/A
LUVERNE        CLOUDY    37  32  81 S16G23    29.55F
MARSHALL       MOSUNNY   37  32  82 SE8       29.56S
6HR MIN TEMP:  33; 6HR MAX TEMP:  38;

MONTEVIDEO     CLOUDY    36  34  93 S10       29.58S
PIPESTONE      MOSUNNY   37  34  87 S14       29.52F
REDWOOD FALLS  CLOUDY    37  31  78 SE12      29.58F
TRACY          CLOUDY    40  33  75 S9        29.55F
WINDOM         CLOUDY    39  32  75 SE18G25   29.57F
WORTHINGTON    CLOUDY    40  33  76 S18       29.54F
$$

IAZ001>003-012>014-020>022-031-032-NEZ013-014-SDZ071-051900-
NORTHWEST IOWA

CITY           SKY/WX    TMP DP  RH WIND       PRES   REMARKS
CHEROKEE       PTSUNNY   45  33  65 S25G33    29.61F
DENISON        CLOUDY    45  34  65 S18G33    29.67F
ESTHERVILLE    CLOUDY    42  36  79 S26G36    29.63F
LE MARS        CLOUDY    43  32  65 S24G31    29.58F
ORANGE CITY    CLOUDY    43  34  70 S25G31    29.57F
SHELDON        MOSUNNY   45  36  70 S20G31    29.55F
SIOUX CITY     CLOUDY    44  33  65 S15       29.60F
6HR MIN TEMP:  39; 6HR MAX TEMP:  45;

SPENCER        MOSUNNY   45  34  65 S30G41    29.61F
6HR MIN TEMP:  34; 6HR MAX TEMP:  46;

STORM LAKE     CLOUDY    45  34  65 S29G38    29.63F
$$

ABBREVIATIONS USED IN REMARKS
   TC - TEMPERATURE IN CELSIUS
  WCI - WIND CHILL INDEX
   HX - HEAT INDEX
  VSB - VISIBILITY





USA.gov is the U.S. government's official web portal to all federal, state and local government web resources and services.